Location: Charbonni�res
(45.9952°N, 2.9982°E)
Time: 17:02:54
(UTC+00:00)

FALCON 9 DEB - Pass Details

Date: 29 November 2020
Orbit: 373 x 394 km, 53.0° (Epoch: 17 January)

Event Time Altitude Azimuth Distance (km) Brightness Sun altitude
Exits shadow 05:03:48 62° 58° (ENE) 451 3.3 -20.8°
Drops below altitude 10° 05:06:33 10° 59° (ENE) 1,443 6.4 -20.4°
Enters shadow 06:02:32 -69° 246° (WSW) 12,265 10.4 -11.0°
